loading
|

STARLINK-11197, 60186

Orbit data source: Space-Track

STARLINK-11197, 60186 is a payload satellite owned by SpaceX/Seattle (US) in LEO that was launched on Wed, 03 Jul 2024 UTC via an FALCON 9 launch vehicle from the Air Force Eastern Test Range (AFETR). Payloads include a variety of satellites, spacecraft, and rockets equipped with specific instruments for various scientific and technological missions. These include communications satellites like Starlink; space stations such as the ISS; scientific satellites like the Hubble; Earth observation satellites from companies like Planet Labs, Umbra, and HawkEye 360; GPS; miniature CubeSats for education and research; and military/defense satellites.

Loading next visibility...
Next conjunction unknown
Loading greatness...
STARLINK-11197 details
Identifier
60186, 2024-124D
Orbit
LEO
Last TLE update13 hours ago
Origin
Flag of USSpaceX/Seattle (US)
ManufacturerSpaceX/Seattle
MissionOperational spacecraft
Bus & MotorSTARLINK V2M, Unknown motor
Mass750 kg wet, ~700 kg dry
Launch date (UTC)
2024-07-03 (3 months ago)
Launch vehicle
FALCON 9
Launch site
Air Force Eastern Test Range (AFETR)
Object type
Payload
Rocket body
Debris
Shape & HBRUnknown
Radar Cross SectionLarge (>1 m²)

Expand to show TLE details & history

TLE from 13 hours ago
0 STARLINK-11197
1 60186U 24124D   24288.08201073  .00041792  00000-0  34771-3 0  9997
2 60186  53.1574 163.0535 0000491  69.7950 290.3121 15.69735186 17367
Epoch: 2024-10-14T01:58Z
Definitive object data (Epoch: 2024-10-14T01:58:05.727Z)
Latitude0.00003°
Longitude110.4154°
Altitude360.455 km
Speed7.694 km/s
True Right ascension10h 52m 12s
True Declination0° 00' 00"
Sunlit
Object was in daylight at TLE epoch
Predictive object data (real-time)
Latitude36.91819°
Longitude-106.25107°
Altitude362.312 km
Speed7.697 km/s
Apparent Right ascension20h 51m 01s
Apparent Declination0° 14' 29"
Sunlit
Object is in daylight
Predictive observer data (real-time)
Local Sidereal Time09:19:05
Azimuth10.914° NNE
Elevation-49.812°
Doppler factor1
Orbital elements
Apogee360.247 km
Perigee359.585 km
Semi-major axis6,738.053 km
Eccentricity0.0000491
Inclination53.1574°
RAAN163.0535°
Arg. of periapsis69.795°
True anomaly290.30682°
Mean anomaly290.3121°
Eccentric anomaly290.30946°
Mean motion3.92411 °/min
BSTAR0.00034771
Period91.74 mins
No data available

STARLINK-11197 Visibility forecast

Observer location: 39.9160978°, -105.1181434

Span
Click to sort rows by Start time (UTC) header in descending order
Start Az.
Max El. time (UTC)
Max El. Az.
Max El.
End time (UTC)
End Az.
4 mins2024-10-15 01:24:00.817Z307.046° NW2024-10-15 01:26:00.817Z148.646° SSE42.387°2024-10-15 01:28:00.817Z134.036° SE